• In United Kingdom
  • List of Countries
  • For 7 days
  • Water Temperature
  • Satellite Maps
  • Weather Map
  • Weather Widgets
  • user-avatar
    Login

    Hourly Weather Chimoio

    Today, 17 August, Thursday

    Time Temperature Precipitation Wind Pressure Humidity
    00:00 +20°C° 0 mm 1 mps 700 mmHg 36%
    01:00 +20°C° 0 mm 1 mps 700 mmHg 36%
    02:00 +19°C° 0 mm 1 mps 700 mmHg 37%
    03:00 +19°C° 0 mm 1 mps 700 mmHg 37%
    04:00 +19°C° 0 mm 1 mps 700 mmHg 37%
    05:00 +18°C° 0 mm 1 mps 700 mmHg 37%
    06:00 +20°C° 0 mm 1 mps 700 mmHg 34%
    07:00 +21°C° 0 mm 2 mps 701 mmHg 31%
    08:00 +24°C° 0 mm 2 mps 701 mmHg 28%
    09:00 +26°C° 0 mm 2 mps 701 mmHg 24%
    10:00 +29°C° 0 mm 3 mps 701 mmHg 21%
    11:00 +33°C° 0 mm 3 mps 701 mmHg 17%
    12:00 +34°C° 0 mm 3 mps 701 mmHg 16%
    13:00 +34°C° 0 mm 3 mps 700 mmHg 15%
    14:00 +35°C° 0 mm 2 mps 700 mmHg 13%
    15:00 +34°C° 0 mm 2 mps 700 mmHg 15%
    16:00 +32°C° 0 mm 2 mps 700 mmHg 16%
    17:00 +31°C° 0 mm 2 mps 699 mmHg 17%
    18:00 +29°C° 0 mm 2 mps 700 mmHg 20%
    19:00 +27°C° 0 mm 1 mps 700 mmHg 23%
    20:00 +25°C° 0 mm 1 mps 700 mmHg 25%
    21:00 +24°C° 0 mm 1 mps 700 mmHg 26%
    22:00 +23°C° 0 mm 1 mps 700 mmHg 27%
    23:00 +23°C° 0 mm 1 mps 700 mmHg 28%

    Tomorrow, 18 August, Friday

    Time Temperature Precipitation Wind Pressure Humidity
    00:00 +22°C° 0 mm 1 mps 700 mmHg 29%
    01:00 +22°C° 0 mm 1 mps 700 mmHg 29%
    02:00 +21°C° 0 mm 1 mps 700 mmHg 30%
    03:00 +21°C° 0 mm 1 mps 701 mmHg 31%
    04:00 +20°C° 0 mm 1 mps 701 mmHg 32%
    05:00 +20°C° 0 mm 1 mps 701 mmHg 33%
    06:00 +20°C° 0 mm 2 mps 702 mmHg 32%
    07:00 +21°C° 0 mm 2 mps 703 mmHg 30%
    08:00 +23°C° 0 mm 2 mps 704 mmHg 29%
    09:00 +25°C° 0 mm 2 mps 704 mmHg 29%
    10:00 +27°C° 0 mm 2 mps 705 mmHg 28%
    11:00 +29°C° 0 mm 3 mps 705 mmHg 27%
    12:00 +30°C° 0 mm 3 mps 705 mmHg 28%
    13:00 +30°C° 0 mm 3 mps 704 mmHg 30%
    14:00 +30°C° 0 mm 3 mps 703 mmHg 31%
    15:00 +28°C° 0 mm 4 mps 703 mmHg 36%
    16:00 +26°C° 0 mm 4 mps 703 mmHg 41%
    17:00 +25°C° 0 mm 4 mps 703 mmHg 47%
    18:00 +22°C° 0 mm 4 mps 704 mmHg 50%
    19:00 +21°C° 0 mm 4 mps 705 mmHg 53%
    20:00 +19°C° 0 mm 4 mps 706 mmHg 57%
    21:00 +19°C° 0 mm 4 mps 706 mmHg 59%
    22:00 +18°C° 0 mm 4 mps 707 mmHg 62%
    23:00 +17°C° 0 mm 4 mps 707 mmHg 65%

    Day after tomorrow, 19 August, Saturday

    Time Temperature Precipitation Wind Pressure Humidity
    00:00 +17°C° 0 mm 3 mps 707 mmHg 65%
    01:00 +16°C° 0 mm 3 mps 707 mmHg 66%
    02:00 +16°C° 0 mm 3 mps 707 mmHg 67%
    03:00 +14°C° 0 mm 3 mps 707 mmHg 69%
    04:00 +14°C° 0 mm 3 mps 707 mmHg 70%
    05:00 +15°C° 0 mm 2 mps 707 mmHg 72%
    06:00 +14°C° 0 mm 3 mps 708 mmHg 70%
    07:00 +16°C° 0 mm 3 mps 709 mmHg 67%
    08:00 +17°C° 0 mm 3 mps 710 mmHg 64%
    09:00 +19°C° 0 mm 3 mps 710 mmHg 58%
    10:00 +20°C° 0 mm 3 mps 710 mmHg 51%
    11:00 +22°C° 0 mm 3 mps 710 mmHg 45%
    12:00 +24°C° 0 mm 3 mps 709 mmHg 43%
    13:00 +23°C° 0 mm 4 mps 708 mmHg 41%
    14:00 +25°C° 0 mm 4 mps 708 mmHg 39%
    15:00 +23°C° 0 mm 4 mps 707 mmHg 42%
    16:00 +22°C° 0 mm 4 mps 707 mmHg 44%
    17:00 +21°C° 0 mm 4 mps 707 mmHg 47%
    18:00 +20°C° 0 mm 3 mps 707 mmHg 51%
    19:00 +19°C° 0 mm 2 mps 708 mmHg 56%
    20:00 +17°C° 0 mm 2 mps 708 mmHg 60%
    21:00 +18°C° 0 mm 1 mps 709 mmHg 62%
    22:00 +16°C° 0 mm 1 mps 709 mmHg 64%
    23:00 +16°C° 0 mm 1 mps 709 mmHg 66%

    20 August, Sunday

    Time Temperature Precipitation Wind Pressure Humidity
    00:00 +16°C° 0 mm 1 mps 708 mmHg 66%
    01:00 +16°C° 0 mm 1 mps 708 mmHg 67%
    02:00 +16°C° 0 mm 1 mps 708 mmHg 67%
    03:00 +16°C° 0 mm 2 mps 708 mmHg 69%
    04:00 +16°C° 0 mm 2 mps 708 mmHg 71%
    05:00 +16°C° 0 mm 2 mps 708 mmHg 73%
    06:00 +16°C° 0 mm 2 mps 709 mmHg 72%
    07:00 +17°C° 0 mm 2 mps 709 mmHg 70%
    08:00 +17°C° 0 mm 2 mps 710 mmHg 69%
    09:00 +19°C° 0 mm 2 mps 710 mmHg 62%
    10:00 +21°C° 0 mm 2 mps 710 mmHg 55%
    11:00 +24°C° 0 mm 2 mps 710 mmHg 48%
    12:00 +24°C° 0 mm 2 mps 709 mmHg 46%
    13:00 +25°C° 0 mm 2 mps 708 mmHg 44%
    14:00 +26°C° 0 mm 2 mps 708 mmHg 42%
    15:00 +25°C° 0 mm 2 mps 707 mmHg 43%
    16:00 +25°C° 0 mm 2 mps 707 mmHg 44%
    17:00 +24°C° 0 mm 2 mps 707 mmHg 45%
    18:00 +23°C° 0 mm 2 mps 707 mmHg 51%
    19:00 +21°C° 0 mm 1 mps 707 mmHg 57%
    20:00 +19°C° 0 mm 1 mps 708 mmHg 63%
    21:00 +19°C° 0 mm 1 mps 708 mmHg 68%
    22:00 +16°C° 0 mm 0 mps 708 mmHg 73%
    23:00 +15°C° 0 mm 0 mps 708 mmHg 79%

    21 August, Monday

    Time Temperature Precipitation Wind Pressure Humidity
    00:00 +15°C° 0 mm 0 mps 707 mmHg 82%
    01:00 +15°C° 0 mm 0 mps 707 mmHg 85%
    02:00 +14°C° 0 mm 0 mps 706 mmHg 88%
    03:00 +14°C° 0 mm 0 mps 706 mmHg 89%
    04:00 +14°C° 0 mm 0 mps 706 mmHg 91%
    05:00 +14°C° 0 mm 0 mps 706 mmHg 92%
    06:00 +15°C° 0 mm 0 mps 707 mmHg 84%
    07:00 +17°C° 0 mm 0 mps 708 mmHg 75%
    08:00 +19°C° 0 mm 0 mps 708 mmHg 67%
    09:00 +23°C° 0 mm 1 mps 708 mmHg 58%
    10:00 +25°C° 0 mm 1 mps 708 mmHg 50%
    11:00 +27°C° 0 mm 1 mps 708 mmHg 41%
    12:00 +27°C° 0 mm 1 mps 707 mmHg 40%
    13:00 +27°C° 0 mm 2 mps 706 mmHg 40%
    14:00 +27°C° 0 mm 2 mps 705 mmHg 39%
    15:00 +26°C° 0 mm 2 mps 705 mmHg 41%
    16:00 +26°C° 0 mm 2 mps 705 mmHg 42%
    17:00 +25°C° 0 mm 2 mps 705 mmHg 43%
    18:00 +24°C° 0 mm 2 mps 705 mmHg 49%
    19:00 +22°C° 0 mm 1 mps 705 mmHg 56%
    20:00 +20°C° 0 mm 1 mps 705 mmHg 62%
    21:00 +20°C° 0 mm 1 mps 705 mmHg 66%
    22:00 +17°C° 0 mm 0 mps 705 mmHg 71%
    23:00 +16°C° 0 mm 0 mps 704 mmHg 75%

    22 August, Tuesday

    Time Temperature Precipitation Wind Pressure Humidity
    00:00 +16°C° 0 mm 0 mps 704 mmHg 77%
    01:00 +16°C° 0 mm 0 mps 703 mmHg 79%
    02:00 +15°C° 0 mm 0 mps 703 mmHg 81%
    03:00 +15°C° 0 mm 0 mps 703 mmHg 82%
    04:00 +14°C° 0 mm 0 mps 703 mmHg 83%
    05:00 +15°C° 0 mm 1 mps 702 mmHg 85%
    06:00 +18°C° 0 mm 1 mps 703 mmHg 76%
    07:00 +20°C° 0 mm 1 mps 703 mmHg 68%
    08:00 +21°C° 0 mm 1 mps 704 mmHg 60%
    09:00 +24°C° 0 mm 1 mps 704 mmHg 51%
    10:00 +27°C° 0 mm 1 mps 704 mmHg 41%
    11:00 +30°C° 0 mm 1 mps 704 mmHg 31%
    12:00 +31°C° 0 mm 1 mps 703 mmHg 27%
    13:00 +32°C° 0 mm 1 mps 702 mmHg 23%
    14:00 +34°C° 0 mm 1 mps 701 mmHg 20%
    15:00 +32°C° 0 mm 1 mps 701 mmHg 21%
    16:00 +31°C° 0 mm 1 mps 700 mmHg 22%
    17:00 +30°C° 0 mm 2 mps 700 mmHg 24%
    18:00 +28°C° 0 mm 1 mps 700 mmHg 28%
    19:00 +25°C° 0 mm 1 mps 700 mmHg 32%
    20:00 +23°C° 0 mm 1 mps 700 mmHg 37%
    21:00 +23°C° 0 mm 1 mps 700 mmHg 38%
    22:00 +22°C° 0 mm 1 mps 700 mmHg 40%
    23:00 +21°C° 0 mm 1 mps 700 mmHg 42%
    Show more